Hourly Data Report for February 14, 2019

TORONTO INTL A
ONTARIO
Current Station Operator: NAVCAN

43°40'36.000" N
79°37'50.000" W
173.40 m
6158731
71624
YYZ

Download Data

Hourly Data (February 2019)
Hourly Data Report for February 14, 2019
TIME
LST
Temp Definition
°C
Dew Point Definition
°C
Rel Hum Definition
%
Precip. Amount Definition
mm

Wind Dir Definition
10's deg

Wind Spd Definition
km/h
Visibility Definition
km
Stn Press Definition
kPa
Hmdx Definition


Wind Chill Definition


Weather Definition


00:00 -4.7 -8.4 75   25 31 9.7 98.87   -13 Snow
01:00 -4.8 -8.4 76   25 28 19.3 98.91   -12 Snow
02:00 -4.9 -8.4 77   26 20 24.1 99.01   -11 LegendNANA
03:00 -4.4 -8.1 76   25 22 24.1 99.07   -11 LegendNANA
04:00 -3.7 -7.9 73   28 34 24.1 99.15   -12 Mostly Cloudy
05:00 -3.5 -7.9 72   27 23 24.1 99.24   -10 LegendNANA
06:00 -3.6 -7.5 74   24 11 24.1 99.29   -8 Snow
07:00 -3.3 -7.1 75   24 22 24.1 99.31   -10 Snow
08:00 -3.5 -7.5 74   25 20 24.1 99.35   -10 LegendNANA
09:00 -3.4 -7.5 74   24 15 24.1 99.40   -9 LegendNANA
10:00 -3.4 -7.5 73   22 14 24.1 99.34   -8 Mostly Cloudy
11:00 -2.8 -7.1 72   22 12 24.1 99.28   -7 LegendNANA
12:00 -1.7 -6.7 69   18 10 24.1 99.15   -5 LegendNANA
13:00 -1.6 -6.8 68   14 16 16.1 99.07   -7 Mostly Cloudy
14:00 -1.4 -5.8 72   13 11 16.1 98.99   -5 LegendNANA
15:00 -0.6 -4.7 74   11 18 12.9 98.96   -6 Snow
16:00 -0.5 -4.6 74   12 21 16.1 98.87   -6 Mostly Cloudy
17:00 -0.2 -4.5 73   11 16 24.1 98.78   -5 LegendNANA
18:00 -0.1 -4.3 73   10 13 16.1 98.72   -4 LegendNANA
19:00 0.2 -3.6 76   10 18 24.1 98.67     Cloudy
20:00 0.3 -3.1 78   9 20 24.1 98.55     LegendNANA
21:00 0.9 -2.2 80   9 15 24.1 98.44     LegendNANA
22:00 1.2 -1.6 82   12 10 24.1 98.35     Cloudy
23:00 1.4 -1.3 82   13 8 24.1 98.20     LegendNANA

Notes on Data Quality.

Legend

  • E = Estimated
  • M = Missing
  • NA = Not Available*
  • [empty] = Indicates an unobserved value
Date modified: